Change the Weather History Date:

Monday, October 22, 2012

  Actual Average (KDLZ) Record (KDLZ)
Temperature  
Mean Temperature 60 °F -  
Max Temperature 73 °F 59 °F 83 °F (1953)
Min Temperature 46 °F 38 °F 20 °F (1974)
Degree Days  
Heating Degree Days 6    
Growing Degree Days 10 (Base 50)    
Moisture  
Dew Point 47 °F    
Average Humidity 66    
Maximum Humidity 83    
Minimum Humidity 49    
Precipitation  
Precipitation 0.01 in - - ()
Sea Level Pressure  
Sea Level Pressure 30.10 in    
Wind  
Wind Speed 8 mph (South)    
Max Wind Speed 13 mph    
Max Gust Speed -    
Visibility 10 miles    
Events      
Averages and records for this station are not official NWS values.
T = Trace of Precipitation, MM = Missing Value Source: NWS Daily Summary

Daily Weather History Graph

Daily Weather History Graph

Search for Another Location

Airport or City:

Trip Planner

Search our weather history database for the weather conditions in past years. The results will help you decide how hot, cold, wet, or windy it might be!

Date:

Astronomy

Oct. 22, 2012 Rise Set
Actual Time 7:51 AM EDT 6:41 PM EDT
Civil Twilight 7:23 AM EDT 7:08 PM EDT
Nautical Twilight 6:51 AM EDT 7:40 PM EDT
Astronomical Twilight 6:20 AM EDT 8:12 PM EDT
Moon 2:50 PM EDT (10/22) 12:35 AM EDT (10/22)
Length of Visible Light 11h 45m
Length of Day
10h 49m
First Quarter, 56% of the Moon is Illuminated
Oct 22
First Quarter
Oct 29
Full
Nov 6
Last Quarter
Nov 13
New
Nov 20
First Quarter

Hourly Weather History & Observations

Time (EDT) Temp. Windchill Dew Point Humidity Pressure Visibility Wind Dir Wind Speed Gust Speed Precip Events Conditions
12:53 AM 46.0 °F 43.1 °F 39.9 °F 79% 30.13 in 10.0 mi South 5.8 mph - N/A   Clear
1:53 AM 46.0 °F 42.5 °F 39.9 °F 79% 30.13 in 10.0 mi South 6.9 mph - N/A   Clear
2:53 AM 46.0 °F 43.1 °F 39.9 °F 79% 30.13 in 10.0 mi South 5.8 mph - N/A   Clear
3:53 AM 46.9 °F - 41.0 °F 80% 30.13 in 10.0 mi South 5.8 mph - N/A   Clear
4:53 AM 46.0 °F 43.1 °F 41.0 °F 83% 30.13 in 10.0 mi South 5.8 mph - N/A   Clear
5:53 AM 46.9 °F - 41.0 °F 80% 30.13 in 10.0 mi South 6.9 mph - N/A   Clear
6:53 AM 46.9 °F - 41.0 °F 80% 30.14 in 10.0 mi SSE 5.8 mph - N/A   Clear
7:53 AM 48.0 °F - 41.0 °F 77% 30.15 in 10.0 mi South 8.1 mph - N/A   Partly Cloudy
8:53 AM 48.9 °F - 43.0 °F 80% 30.15 in 10.0 mi South 9.2 mph - N/A   Clear
9:53 AM 54.0 °F - 45.0 °F 72% 30.15 in 10.0 mi South 6.9 mph - N/A   Clear
10:53 AM 60.1 °F - 48.0 °F 64% 30.14 in 10.0 mi South 10.4 mph - N/A   Clear
11:53 AM 64.9 °F - 48.9 °F 56% 30.13 in 10.0 mi SSW 12.7 mph - 0.01 in   Clear
12:53 PM 69.1 °F - 51.1 °F 53% 30.11 in 10.0 mi South 10.4 mph - N/A   Clear
1:53 PM 71.1 °F - 51.1 °F 49% 30.09 in 10.0 mi SSW 12.7 mph - N/A   Clear
2:53 PM 72.0 °F - 52.0 °F 49% 30.07 in 10.0 mi South 11.5 mph - N/A   Clear
3:53 PM 73.0 °F - 53.1 °F 49% 30.07 in 10.0 mi SSW 9.2 mph - N/A   Mostly Cloudy
4:53 PM 73.0 °F - 53.1 °F 49% 30.07 in 10.0 mi SSW 9.2 mph - N/A   Overcast
5:53 PM 71.1 °F - 55.0 °F 57% 30.06 in 10.0 mi South 5.8 mph - N/A   Mostly Cloudy
6:53 PM 70.0 °F - 53.1 °F 55% 30.05 in 10.0 mi SSW 9.2 mph - N/A   Clear
7:53 PM 66.0 °F - 53.1 °F 63% 30.05 in 10.0 mi SSW 6.9 mph - N/A   Clear
9:53 PM 64.9 °F - 53.1 °F 65% 30.05 in 10.0 mi SSW 9.2 mph - N/A   Clear
10:53 PM 63.0 °F - 51.1 °F 65% 30.04 in 10.0 mi South 8.1 mph - N/A   Partly Cloudy
11:53 PM 64.0 °F - 52.0 °F 65% 30.03 in 10.0 mi SSW 10.4 mph - N/A   Mostly Cloudy